パロマー彗星

C/2013 P3 ( Palomar )

English version
Home page
Updated on March 5, 2020

---------------------------------------------------------------------

・ プロフィール

発見日 2013年8月9日
発見光度 18.9等
発見者 Palomar Transient Factory

・ 写真集

・ 軌道要素

Epoch 2014 Dec. 9.0 TT = JDT 2457000.5
T 2014 Nov. 23.83160 TT                                 MPCW
q   8.6465423            (2000.0)            P               Q
z  -0.0001404      Peri.  177.18375     +0.99782244     +0.04583976
 +/-0.0000007      Node   177.27541     -0.05998785     +0.33180680
e   1.0012142      Incl.   93.91037     +0.02741950     -0.94223297
From 472 observations 2013 Aug. 8-2018 June 24, mean residual 0".4.

・ 光度変化

        m1 = -6.0 + 5 logΔ + 20.0 log r(t - 300)

---------------------------------------------------------------------

軌道要素はM.P.E.C. 2018-S50に掲載されたものです。
光度グラフはComet for Windowsで作成したものです。

---------------------------------------------------------------------

Copyright(C) Seiichi Yoshida (comet@aerith.net). All rights reserved.